Regional Weather Roundup
Issued by NWS

Home | Current Version | Previous Version | Text Only | Print | Product List | Glossary On
Versions: 1 2 3 4 5 6 7 8 9 10 11 12 13 14 15 16 17 18 19 20 21 22 23 24 25 26 27 28
000
ASUS45 KBOI 260010
RWRID
WEATHER ROUNDUP FOR IDAHO
NATIONAL WEATHER SERVICE BOISE ID
600 PM MDT SAT OCT 25 2014

NOTE: "FAIR" INDICATES FEW OR NO CLOUDS BELOW 12000 FEET
WITH NO SIGNIFICANT WEATHER AND/OR OBSTRUCTIONS TO VISIBILITY

IDZ012-014-260100-
SOUTHWEST IDAHO


CITY           SKY/WX    TMP DP  RH WIND       PRES   REMARKS
BOISE          MOCLDY    64  48  56 N5        29.75F
CALDWELL       MOCLDY    61  46  59 W7        29.78R
MOUNTAIN HOME  MOCLDY    76  29  18 W7        29.74F
$$

IDZ016-017-260100-
SOUTHCENTRAL IDAHO


CITY           SKY/WX    TMP DP  RH WIND       PRES   REMARKS
BURLEY         CLOUDY    69  36  29 S6        29.81F
JEROME         CLOUDY    70  32  24 W8        29.81F
TWIN FALLS     CLOUDY    75  26  16 SW12      29.80F HAZE
$$

IDZ019>023-260100-
SOUTHEAST IDAHO


CITY           SKY/WX    TMP DP  RH WIND       PRES   REMARKS
IDAHO FALLS    MOCLDY    68  33  27 SW20G29   29.88F
POCATELLO      CLEAR     69  33  26 S14       29.88F
REXBURG        MOCLDY    67  30  25 SW16      29.88F
$$

IDZ006-010-011-018-031-032-260100-
CENTRAL IDAHO MOUNTAINS


CITY           SKY/WX    TMP DP  RH WIND       PRES   REMARKS
MCCALL         CLOUDY    58  31  35 S18G31    29.81R
HAILEY         PTCLDY    64  37  36 SE7       29.88F
STANLEY          N/A     58  27  30 VRB5      29.89F
SALMON         PTCLDY    48  41  76 SW3       29.76F
CHALLIS        MOCLDY    65  27  23 S13G21    29.80F
$$

IDZ002-004-006-007-026-260100-
NORTHERN IDAHO


CITY           SKY/WX    TMP DP  RH WIND       PRES   REMARKS
LEWISTON       PTCLDY    71  41  33 S15G22    29.51F
LOWELL           N/A     52  49  89 CALM      29.64F
COEUR D`ALENE  MOCLDY    55  45  67 NE10      29.54F
MULLAN PASS    LGT RAIN  48  33  56 SW10G21   29.71F
$$



USA.gov is the U.S. government's official web portal to all federal, state and local government web resources and services.